Weather Roundup
Issued by NWS Chicago, IL

Home | Current Version | Previous Version | Text Only | Print | Product List | Glossary Off
Versions: 1 2 3 4 5 6 7 8 9 10 11 12 13 14 15 16 17 18 19 20 21 22 23 24 25 26 27 28 29 30 31 32 33 34 35 36 37 38 39 40 41 42 43 44 45 46 47 48 49 50

000
NZUS59 KLOT 042208
HRRLOT

CHICAGO AREA WEATHER ROUNDUP
NATIONAL WEATHER SERVICE CHICAGO/ROMEOVILLE IL
400 PM CST SUN DEC 04 2016

NOTE: "FAIR" INDICATES FEW OR NO CLOUDS BELOW 12,000 FEET WITH NO
SIGNIFICANT WEATHER AND/OR OBSTRUCTIONS TO VISIBILITY.

* THESE STATIONS ARE NOT UNDER NWS QUALITY CONTROL. THEY ALSO MAY NOT
  REPORT WEATHER SUCH AS PRECIPITATION OR FOG.

ILZ005-006-012>014-019>023-042300-
NORTHEAST ILLINOIS

CITY           SKY/WX    TMP DP  RH WIND       PRES   REMARKS
OHARE          SNOW      32  31  96 NW3       29.90F VSB 1/4
MIDWAY         SNOW      33  31  92 CALM      29.90R VSB 1/2
AURORA         SNOW      32  31  96 W3        29.93R VSB 1/2
LANSING*       LGT SNOW  32  32 100 CALM      29.89F VSB 3/4
JOLIET*        SNOW      33  33 100 CALM      29.92R VSB 1/2
WAUKEGAN       SNOW      32  32 100 SW3       29.90F VSB 1/4
DUPAGE AIRPORT SNOW      32  29  88 CALM      29.91S VSB 1/2
WHEELING       SNOW      32  31  96 NW5       29.92F VSB 1/2 WCI  27
KANKAKEE*      SNOW      32  32  99 CALM      29.90R VSB 1/2
MORRIS*        SNOW      32  31  96 CALM      29.92R VSB 1/2
LEWIS AIRPORT* SNOW      32  32 100 CALM      29.91R VSB 1/2
NORTHERLY ISL    N/A     33  32  96 E6          N/A  WCI  28
$$

WIZ051-052-058>065-066-070>072-042300-
SOUTHEAST WISCONSIN

CITY           SKY/WX    TMP DP  RH WIND       PRES   REMARKS
MILWAUKEE      LGT SNOW  34  31  88 S8        29.89F VSB 3/4 WCI  27
KENOSHA*       SNOW      33  31  92 S5        29.90F VSB 1/4 WCI  29
RACINE*        SNOW      33  31  92 S3        29.91F VSB 1/2
BURLINGTON     LGT SNOW  32  31  99 CALM      29.90S VSB 1
WAUKESHA       SNOW      30  28  93 SE5       29.90F VSB 1/2 WCI  25
WEST BEND      SNOW      32  32 100 CALM      29.89F VSB 1/2
$$

INZ001>003-010>013-019-020-042300-
NORTHWEST INDIANA

CITY           SKY/WX    TMP DP  RH WIND       PRES   REMARKS
GARY*          LGT SNOW N/A N/A N/A CALM      29.89F VSB 3/4
MICHIGAN CITY* NOT AVBL
RENSSELAER*    NOT AVBL
VALPARAISO     SNOW      33  31  92 E8        29.87F VSB 1/2 WCI  26
$$

LMZ740>746-042300-
SOUTHERN LAKE MICHIGAN

STATION/POSITION TIME  SKY/WX   TEMP WIND        PRES    VSBY
                                AIR  DIR/SP/G
                 (UTC)          (F)  (DEG/KT/KT) (MB)    (MI)
HARRISON CRIB    2140            35  110/ 10/ 11   N/A
BURNHAM HARBOR   2200            33  110/  5/ 11   N/A
CALUMET HARBOR   2130            33   90/ 10/ 12 1011.5F
BURNS HARBOR     2140            33   80/  8/  9 1012.5F
MICHIGAN CITY    NOT AVBL
$$

ABBREVIATIONS USED IN REMARKS
   TC - TEMPERATURE IN CELSIUS
  WCI - WIND CHILL INDEX
   HX - HEAT INDEX
  VSB - VISIBILITY
$$




USA.gov is the U.S. government's official web portal to all federal, state and local government web resources and services.